sat.trackr.live / text

‹ back to catalog

STARLINK-31181

NORAD 58746 · 2024-005U

PAYLOAD ACTIVE UNKNOWN

§ Identity

Operator
Country
US
Launch date
2024-01-07
Launch site
AFETR
Launch vehicle
Mass (kg)
RCS (m²)

Purposes: comms

External: N2YO · Heavens-Above · Gunter

§ Orbital elements

Epoch: 2026-05-25T00:08:39.094656Z

Period
94.27 min
Inclination
43.0005°
Eccentricity
0.0000724
Mean motion
15.27575234 rev/d
Perigee alt
482.6 km
Apogee alt
483.6 km
Semi-major
6,861.2 km
B*
3.8849e-5
RAAN
356.5271°
Arg perigee
300.1273°
Mean anomaly
59.9507°
Rev number
13,395

§ Raw data

STARLINK-311811 58746U 24005U   26145.00600804  .00000807  00000+0  38849-4 0  99972 58746  43.0005 356.5271 0000724 300.1273  59.9507 15.27575234133959

JSON: /api/v1/satellites/58746 · /tle

For live sub-satellite position, see the globe view (requires WebGL).

§ Visibility from observer

Set your observer location to see the next 7 days of passes ≥ 10°. The values pass through the URL so the page stays shareable.

No JS? Fill the form by hand. The geolocation button needs JavaScript.